Tracking 29892 objects as of 21-Nov-2024
HD Live streaming from Space Station
objects crossing your sky now

STARLINK-30591

Track STARLINK-30591 now!
10-day predictions
STARLINK-30591 is classified as:


NORAD ID: 58088
Int'l Code: 2023-160P
Perigee: 565.3 km
Apogee: 567.2 km
Inclination: 43.0 °
Period: 95.8 minutes
Semi major axis: 6937 km
RCS: Unknown
Launch date: October 18, 2023
Source: United States (US)
Launch site: AIR FORCE EASTERN TEST RANGE (AFETR)
Your satellite tracking list
Your tracking list is empty




NASA's NSSDC Master Catalog

Two Line Element Set (TLE):
1 58088U 23160P   24325.86058610  .00000526  00000-0  54042-4 0  9993
2 58088  43.0029 134.7442 0001373 272.3404  87.7281 15.02536766 61641
Source of the keplerian elements: AFSPC